x

8454000 - Providence, Ri (foxr1) Weather Station

2:54 - Sun 1st May 2016 All times are EDT. -4 hours from GMT.

  • Wind
    8mph, 14mph gusts
  • Sea Temp 54°f
  • Ar Temp 50°f
  • Sea Pressure 1022.5mb
  • 8454000 - Providence, Ri
  • 8454000 - Providence, Ri

More Historic Weather Station data

Upgrade to MSW Pro to gain access to the past 30 days of data for over 8000 Wavebouys and Weather Stations around the globe.

Join Pro

Comparision Forecast

View Surf forecast
   
Dom 05/01 2:54 8 14 mph 1022.5mb 54f 50f
2:48 8 14 mph 1022.5mb 54f 50f
2:42 11 14 mph 1022.5mb 54f 50f
2:36 11 15 mph 1022.4mb 54f 51f
2:30 11 14 mph 1022.3mb 53f 51f
2:24 7 11 mph 1022.5mb 53f 51f
2:18 11 14 mph 1022.6mb 53f 51f
2:12 8 14 mph 1022.7mb 53f 51f
2:06 10 14 mph 1022.7mb 53f 51f
2:00 9 15 mph 1022.7mb 53f 51f
1:54 10 14 mph 1022.7mb 53f 51f
1:48 10 13 mph 1022.8mb 53f 51f
1:42 8 13 mph 1022.8mb 53f 51f
1:36 9 14 mph 1022.7mb 53f 51f
1:30 9 13 mph 1022.7mb 53f 51f
1:24 10 14 mph 1022.8mb 53f 51f
1:18 10 15 mph 1022.8mb 53f 51f
1:12 10 14 mph 1022.6mb 53f 51f
1:06 10 15 mph 1022.7mb 53f 51f
1:00 11 15 mph 1022.5mb 53f 51f
12:54 11 15 mph 1022.5mb 53f 51f
12:48 10 15 mph 1022.6mb 53f 51f
12:42 11 15 mph 1022.6mb 53f 51f
12:36 8 17 mph 1022.7mb 54f 51f
12:30 10 15 mph 1022.7mb 54f 51f
12:24 11 15 mph 1023mb 54f 51f
12:18 11 17 mph 1023.1mb 54f 51f
12:12 13 16 mph 1023.1mb 54f 51f
12:06 11 15 mph 1023.1mb 54f 51f
12:00 10 15 mph 1023.1mb 54f 51f
11:54 9 11 mph 1023.2mb 54f 51f
11:48 10 16 mph 1023.2mb 54f 51f
11:42 9 14 mph 1023.4mb 54f 51f
11:36 7 14 mph 1023.6mb 54f 51f
11:30 10 14 mph 1023.6mb 54f 50f
11:24 8 13 mph 1023.8mb 54f 51f
11:18 11 14 mph 1023.7mb 54f 50f
11:12 13 16 mph 1023.7mb 54f 50f
11:06 11 15 mph 1023.5mb 55f 50f
11:00 10 14 mph 1023.4mb 55f 51f
10:54 10 15 mph 1023.4mb 55f 51f
10:48 11 15 mph 1023.4mb - -
10:42 9 14 mph 1023.4mb - -
10:36 13 16 mph 1023.4mb - -
10:30 11 14 mph 1023.4mb 55f 50f
10:24 11 13 mph 1023.5mb 55f 50f
10:18 10 15 mph 1023.5mb 55f 50f
10:12 10 13 mph 1023.5mb 55f 50f
10:06 10 13 mph 1023.5mb 55f 50f
10:00 9 13 mph 1023.6mb 55f 50f
9:54 9 13 mph 1023.6mb 55f 50f
9:48 10 13 mph 1023.7mb 55f 50f
9:42 9 11 mph 1023.7mb 55f 49f
9:36 9 11 mph 1023.9mb 55f 49f
9:30 9 10 mph 1023.9mb 55f 49f
9:24 7 10 mph 1023.9mb 55f 49f
9:18 8 10 mph 1024mb 55f 49f
9:12 9 11 mph 1024mb 55f 49f
9:06 9 11 mph 1024mb 55f 49f
9:00 9 11 mph 1024mb 55f 49f
8:54 9 11 mph 1023.9mb 55f 49f
8:48 8 10 mph 1023.9mb 55f 49f
8:42 7 10 mph 1023.8mb 55f 49f
8:36 6 10 mph 1023.7mb 55f 49f
8:30 9 11 mph 1023.6mb 55f 48f
8:24 8 10 mph 1023.6mb 55f 48f
8:18 9 10 mph 1023.6mb 55f 48f
8:12 7 10 mph 1023.6mb 55f 48f
8:06 6 8 mph 1023.8mb 55f 48f
8:00 6 7 mph 1023.7mb 55f 47f
7:54 6 7 mph 1023.7mb 55f 47f
7:48 6 7 mph 1023.7mb 55f 47f
7:42 5 7 mph 1023.7mb 55f 47f
7:36 5 6 mph 1023.8mb 55f 47f
7:30 5 6 mph 1023.8mb 55f 47f
7:24 3 6 mph 1023.7mb 55f 47f
7:18 5 7 mph 1023.8mb 55f 46f
7:12 3 6 mph 1023.8mb 55f 46f
7:06 3 5 mph 1023.8mb 55f 46f
7:00 3 6 mph 1023.7mb 55f 45f
6:54 6 7 mph 1023.8mb 54f 45f
6:48 3 6 mph 1023.7mb 54f 45f
6:42 3 6 mph 1023.6mb 54f 45f
6:36 5 6 mph 1023.5mb 54f 45f
6:30 3 5 mph 1023.6mb 54f 45f
6:24 3 6 mph 1023.5mb 54f 45f
6:18 5 6 mph 1023.4mb 54f 45f
6:12 2 6 mph 1023.3mb 54f 45f
6:06 3 5 mph 1023.2mb 54f 45f
6:00 5
mph
1023mb 54f 45f
5:54 5
mph
1023mb 54f 45f
5:48 3 5 mph 1023mb 54f 45f
5:42 3 5 mph 1023mb 54f 45f
5:36 3 5 mph 1023mb 54f 45f
5:30 3
mph
1023mb 54f 45f
5:24 2 3 mph 1023mb 54f 44f
5:18 2 3 mph 1023mb 54f 44f
5:12 2 3 mph 1023mb 54f 44f
5:06 2 3 mph 1023mb 54f 44f
5:00 2 3 mph 1023mb 54f 44f
4:54 3
mph
1022.7mb 54f 44f
4:48 3
mph
1022.7mb 54f 44f
4:42 3
mph
1022.7mb 54f 44f
4:36 2 3 mph 1022.7mb 54f 44f
4:30 2 3 mph 1022.8mb 54f 44f
4:24 2 3 mph 1022.9mb 54f 44f
4:18 2 3 mph 1022.9mb 54f 44f
4:12 2 3 mph 1022.9mb 54f 44f
4:06 2 3 mph 1022.8mb 54f 44f
4:00 3
mph
1022.8mb 54f 44f
3:54 2 3 mph 1022.8mb 54f 44f
3:48 2
mph
1022.8mb 54f 44f
3:42 2
mph
1022.8mb 54f 44f
3:36 2
mph
1022.8mb 54f 44f
3:30 1 2 mph 1022.8mb 54f 44f
3:24 1 2 mph 1022.8mb 54f 44f
3:18 1 2 mph 1022.7mb 54f 44f
3:12 1 2 mph 1022.8mb 54f 44f
3:06 2 3 mph 1022.9mb 54f 44f
3:00 2 3 mph 1022.9mb 54f 44f
2:54 2 3 mph 1022.9mb 54f 44f
2:48 2
mph
1022.9mb 54f 44f
2:42 2
mph
1023mb 54f 44f
2:36 2 3 mph 1023mb 54f 44f
2:30 2 3 mph 1023mb 54f 44f
2:24 2 3 mph 1023mb 54f 44f
2:18 2 3 mph 1023mb 54f 44f
2:12 2 3 mph 1022.9mb 54f 45f
2:06 3 5 mph 1023mb 53f 44f
2:00 3 5 mph 1023.1mb 53f 45f
1:54 2 3 mph 1023.1mb 53f 45f
1:48  -  mph 1023mb 53f 45f
1:42  -  mph 1023.1mb 53f 45f
1:36  -  mph 1022.9mb 53f 44f
1:30 2 3 mph 1023.1mb 53f 45f
1:24 1 2 mph 1023.1mb 53f 45f
1:18 2 3 mph 1023.1mb 53f 45f
1:12 2 3 mph 1023.1mb 53f 45f
1:06 3 5 mph 1023.4mb 53f 45f
1:00 3 6 mph 1023.5mb 53f 45f
12:54 3 6 mph 1023.6mb 53f 45f
12:48 3 6 mph 1023.5mb 54f 45f
12:42 5 7 mph 1023.7mb 54f 45f
12:36 5 8 mph 1023.8mb 54f 45f
12:30 5 6 mph 1023.9mb 54f 45f
12:24 3 5 mph 1023.9mb 54f 45f
12:18 2 7 mph 1023.8mb 55f 46f
12:12 6 7 mph 1023.9mb 55f 46f
12:06 5 6 mph 1023.9mb 55f 46f
12:00 2 5 mph 1024mb 55f 46f
Sáb 04/30 11:54 2 5 mph 1023.8mb 55f 46f
11:48 5 8 mph 1023.9mb 55f 46f
11:42 6 8 mph 1024mb 55f 46f
11:36 6 8 mph 1023.9mb 55f 46f
11:30 7 8 mph 1024mb 55f 46f
11:24 6 9 mph 1024mb 55f 46f
11:18 5 8 mph 1023.9mb 55f 46f
11:12 6 9 mph 1023.9mb 55f 46f
11:06 6 9 mph 1023.8mb 55f 46f
11:00  -  mph - 55f -
10:54  -  mph - 55f -
10:48  -  mph 1023.8mb 55f -
10:42  -  mph 1023.9mb 55f -
10:36  -  mph 1023.9mb 55f -
10:30  -  mph 1024mb 55f -
10:24  -  mph 1023.9mb 55f -
10:18  -  mph 1023.9mb - 47f
10:12  -  mph 1024mb - 47f
10:06  -  mph 1024.1mb - 47f
10:00 6 11 mph 1024.1mb 55f 47f
9:54 5 10 mph 1024mb 55f 47f
9:48 9 13 mph 1024mb 55f -
9:42 9 13 mph 1024.1mb 55f -
9:36 10 13 mph 1024.1mb 55f -
9:30  -  mph 1024mb 55f -
9:24  -  mph 1024mb 55f -
9:18 7 10 mph 1023.9mb 55f -
9:12 10 13 mph 1023.9mb 55f -
9:06 8 9 mph 1023.8mb 55f -
9:00 8 14 mph 1023.9mb 55f 48f
8:54 7 13 mph 1024mb 55f 48f
8:48 8 9 mph 1024mb 55f -
8:42 8 11 mph 1024mb 55f -
8:36 10 11 mph 1024.1mb 55f -
8:30  -  mph 1024.1mb 55f 48f
8:24  -  mph 1024mb 56f 48f
8:18 9 10 mph 1023.9mb 56f -
8:12 8 11 mph 1023.9mb 56f -
8:06 10 13 mph 1023.8mb 56f -
8:00  -  mph 1024mb 56f 48f
7:54  -  mph 1023.9mb 56f 48f
7:48  -  mph 1023.8mb - -
7:42  -  mph 1023.7mb - -
7:36  -  mph 1023.6mb - -
7:00  -  mph - 55f 50f
6:54  -  mph - 55f 50f
6:48  -  mph - 55f 50f
6:42  -  mph - 55f 51f
6:36  -  mph - 55f 51f
6:30 10 17 mph 1023.1mb 55f 51f
6:24 14 18 mph 1023mb 55f 51f
6:18 16 22 mph 1023mb 55f -
6:12 15 18 mph 1023mb 55f -
6:06 13 21 mph 1023.1mb 54f -
6:00  -  mph 1023mb 54f 51f
5:54  -  mph 1023mb 54f 51f
5:48  -  mph 1023mb - -
5:42  -  mph 1023.1mb - -
5:36  -  mph 1023mb - -
5:30 15 21 mph 1022.9mb 54f 52f
5:24 17 25 mph 1022.9mb 54f 53f
5:18 17 23 mph 1022.8mb 54f 53f
5:12 17 22 mph 1022.7mb 53f 54f
5:06 16 22 mph 1022.6mb 53f 54f
5:00 17 21 mph 1022.5mb 53f 55f
4:54 17 21 mph 1022.5mb 53f 55f
4:48 14 20 mph 1022.3mb 53f 56f
4:42 11 20 mph 1022.3mb 53f 56f
4:36 17 23 mph 1022.2mb 53f 56f
4:30 16 22 mph 1022.3mb 53f 56f
4:24 14 21 mph 1022.2mb 53f 56f
4:18 14 21 mph 1022.2mb 52f 56f
4:12 14 21 mph 1022.2mb 52f 56f
4:06 15 22 mph 1022.1mb 52f 56f
4:00 14 22 mph 1022.1mb 52f 56f
3:54 15 22 mph 1021.9mb 52f 56f
3:48 18 25 mph 1021.7mb 52f 56f
3:42 22 26 mph 1021.6mb 52f 55f
3:36 22 26 mph 1021.6mb 52f 55f
3:30 21 26 mph 1021.4mb 52f 56f
3:24 21 25 mph 1021.3mb 52f 56f
3:18 20 25 mph 1021.3mb 52f 56f
3:12 20 25 mph 1021.3mb 52f 56f
3:06 18 24 mph 1021.2mb 52f 57f
3:00 21 24 mph 1021.2mb 52f 56f
2:54 21 25 mph 1021.1mb 52f 57f
2:48 20 23 mph 1021mb 52f 57f
2:42 20 22 mph 1021mb 52f 58f
2:36 18 23 mph 1020.9mb 52f 59f
2:30 20 22 mph 1020.9mb 53f 58f
2:24 16 21 mph 1020.8mb 53f 59f
2:18 16 18 mph 1020.7mb 53f 59f
2:12 14 18 mph 1020.5mb 53f 59f
2:06 17 20 mph 1020.4mb 53f 59f
2:00 15 16 mph 1020.5mb 53f 59f
1:54 11 14 mph 1020.5mb 53f 59f
1:48 11 13 mph 1020.6mb 53f 60f
1:42 11 13 mph 1020.6mb 53f 60f
1:36 9 11 mph 1020.6mb 53f 60f
1:30 8 10 mph 1020.7mb 53f 60f
1:24 8 10 mph 1020.7mb 53f 60f
1:18 6 11 mph 1020.8mb 53f 60f
1:12 9 14 mph 1020.8mb 53f 59f
1:06 3 6 mph 1020.7mb 53f 60f
1:00 3 8 mph 1020.8mb 53f 61f
12:54 2 3 mph 1020.8mb 53f 59f
12:48 1 5 mph 1020.8mb 53f 59f
12:42  -  5 mph 1020.9mb 53f 60f
12:36 5 7 mph 1020.9mb 53f 59f
12:30 6 8 mph 1020.9mb 53f 58f
12:24 9 11 mph 1020.7mb 53f 58f
12:18 3 7 mph 1020.9mb 53f 59f
12:12 3
mph
1021mb 53f 59f
12:06 3 7 mph 1021mb 53f 58f
12:00 2 5 mph 1021.1mb 53f 59f
11:54 2 3 mph 1021.2mb 53f 58f
11:48 2 5 mph 1021.3mb 53f 59f
11:42 3 5 mph 1021.4mb 53f 58f
11:36  -  5 mph 1021.4mb 54f 58f
11:30 3 8 mph 1021.5mb 54f 57f
11:24 3 6 mph 1021.6mb 54f 57f
11:18 1 5 mph 1021.4mb 54f 57f
11:12 2 3 mph 1021.6mb 54f 57f
11:06 1 6 mph 1021.6mb 54f 56f
11:00 2 7 mph 1021.5mb 54f 56f
10:54 2 5 mph 1021.5mb 54f 56f
10:48 1 3 mph 1021.7mb - -
10:42  -  3 mph 1021.8mb - -
10:36 2 6 mph 1021.9mb - -
10:30 2 5 mph 1021.9mb 54f 56f
10:24 1 6 mph 1022.1mb 54f 55f
10:18 2 5 mph 1022.2mb 54f 57f
10:12 2 5 mph 1022.4mb 54f 56f
10:06 2 6 mph 1022.3mb 54f 54f
10:00 3 7 mph 1022.5mb 54f 54f
9:54 2 5 mph 1022.3mb 54f 53f
9:48 2 5 mph 1022.3mb 54f 54f
9:42 1 5 mph 1022.5mb 54f 54f
9:36 3 5 mph 1022.3mb 54f 53f
9:30 2 5 mph 1022.4mb 54f 52f
9:24 3 5 mph 1022.6mb 54f 52f
9:18 1 3 mph 1022.6mb 54f 53f
9:12  -  5 mph 1022.6mb 54f 53f
9:06 2 5 mph 1022.4mb 54f 52f
9:00 1 5 mph 1022.7mb 54f 52f
8:54 2 5 mph 1022.7mb 54f 54f
8:48 3 7 mph 1022.7mb 54f 53f
8:42 2 5 mph 1022.7mb 54f 52f
8:36 2 5 mph 1022.8mb 54f 52f
8:30  -  3 mph 1022.9mb 54f 51f
8:24 2 6 mph 1022.9mb 54f 51f
8:18 3 6 mph 1023mb 54f 50f
8:12 6 8 mph 1023mb 54f 50f
8:06 3 8 mph 1023mb 54f 49f
8:00 3 6 mph 1023mb 54f 49f
7:54 5 7 mph 1023mb 54f 49f
7:48 3 7 mph 1022.9mb 54f 49f
7:42 6 8 mph 1022.8mb 54f 48f
7:36 5 8 mph 1022.8mb 54f 48f
7:30 5 7 mph 1022.6mb 54f 48f
7:24 3 6 mph 1022.3mb 54f 47f
7:18 1 5 mph 1022.3mb 54f 47f
7:12 2 3 mph 1022.4mb 54f 47f
7:06  -  1 mph 1022.4mb 54f 48f
7:00  -  1 mph 1022.3mb 54f 47f
6:54  -  1 mph 1022.4mb 54f 47f
6:48  -  2 mph 1022.3mb 54f 46f
6:42 1 3 mph 1022.1mb 54f 45f
6:36 2 5 mph 1021.9mb 54f 44f
6:30 3 5 mph 1021.7mb 54f 44f
6:24 1 3 mph 1021.6mb 54f 45f
6:18 1 2 mph 1021.6mb 54f 45f
6:12 2
mph
1021.6mb 54f 44f
6:06 2 5 mph 1021.5mb 54f 44f
6:00 3 5 mph 1021.4mb 54f 44f
5:54 3 5 mph 1021.1mb 54f 44f
5:48 3 5 mph 1020.9mb 54f 45f
5:42 3 6 mph 1020.8mb 54f 45f
5:36 5 6 mph 1020.6mb 54f 45f
5:30 3 5 mph 1020.5mb 54f 44f
5:24 5 6 mph 1020.4mb 54f 44f
5:18 5 6 mph 1020.4mb 54f 44f
5:12 3
mph
1020.3mb 54f 44f
5:06 2 3 mph 1020.4mb 54f 45f
5:00 3
mph
1020.4mb 54f 45f
4:54 2 5 mph 1020.5mb 54f 45f
4:48 2 3 mph 1020.6mb 54f 45f
4:42 3
mph
1020.7mb 54f 45f
4:36 3 5 mph 1020.7mb 54f 45f
4:30 2 5 mph 1020.8mb 54f 46f
4:24 3 5 mph 1020.8mb 54f 46f
4:18 2 5 mph 1020.8mb 54f 46f
4:12 2 5 mph 1020.9mb 54f 46f
4:06 3 5 mph 1021mb 54f 46f
4:00 2 5 mph 1021mb 54f 46f
3:54  -  1 mph 1021mb 54f 46f
3:48  -  2 mph 1021mb 54f 46f
3:42 2 3 mph 1021mb 54f 46f
3:36 2 3 mph 1020.8mb 54f 46f
3:30 3
mph
1020.8mb 54f 46f
3:24  -  2 mph 1020.8mb 54f 46f
3:18 2 3 mph 1020.8mb 54f 46f
3:12 2 3 mph 1020.7mb 54f 46f
3:06 2
mph
1020.7mb 54f 46f
3:00 2
mph
1020.8mb 54f 46f
2:54 2 3 mph 1020.8mb 54f 46f
2:48  -  2 mph 1020.6mb 54f 46f
2:42 1 2 mph 1020.5mb 54f 46f
2:36  -  1 mph 1020.5mb 54f 46f
2:30 1
mph
1020.6mb 54f 46f
2:24  -  1 mph 1020.7mb 54f 46f
2:18 2
mph
1020.7mb 54f 46f
2:12 2
mph
1020.6mb 54f 46f
2:06 2 3 mph 1020.7mb 53f 46f
2:00 3 5 mph 1020.7mb 53f 46f
1:54 2 3 mph 1020.8mb 53f 46f
1:48 2 3 mph 1020.9mb - -
1:42 1 5 mph 1021mb - -
1:36 3 5 mph 1021mb - -
1:30 3 5 mph 1020.9mb 53f 46f
1:24 5 6 mph 1020.9mb 53f 46f
1:18 5 7 mph 1020.9mb 53f 46f
1:12 5 6 mph 1020.9mb 53f 46f
1:06 5 6 mph 1020.9mb 53f 46f
1:00 5 6 mph 1020.9mb 53f 46f
12:54 3 5 mph 1021mb 53f 46f
12:48 5 6 mph 1020.9mb 53f 46f
12:42 5 6 mph 1020.9mb 53f 46f
12:36 6 8 mph 1020.8mb 53f 46f
12:30 7 8 mph 1020.7mb 53f 46f
12:24 7 8 mph 1020.8mb 53f 46f
12:18 5 7 mph 1020.8mb 53f 46f
12:12 5 7 mph 1020.8mb 53f 46f
12:06 5 7 mph 1020.8mb 53f 46f
12:00 6 8 mph 1020.9mb 53f 46f
Sex 04/29 11:54 6 8 mph 1020.8mb 53f 46f
11:48 5 6 mph 1020.8mb 53f 46f
11:42 5 6 mph 1020.8mb 54f 46f
11:36 6 7 mph 1020.8mb 54f 46f
11:30 5 7 mph 1020.7mb 54f 46f
11:24 6 8 mph 1020.7mb 53f 46f
11:18 6 7 mph 1020.5mb 53f 46f
11:12 7 9 mph 1020.4mb 53f 46f
11:06 6 8 mph 1020.3mb 54f 46f
11:00  -  mph - 54f 46f
10:54  -  mph - 54f 46f
10:48 8 9 mph 1020.3mb 54f -
10:42 7 10 mph 1020.3mb 54f -
10:36 7 10 mph 1020.3mb 54f -
10:30 8 10 mph 1020.4mb 54f -
10:24 8 10 mph 1020.4mb 54f -
10:18 8 11 mph 1020.5mb 55f 46f
10:12 8 10 mph 1020.6mb 55f 46f
10:06 7 9 mph 1020.6mb 55f 46f
10:00  -  mph 1020.6mb 55f 46f
9:54  -  mph 1020.5mb 55f 46f
9:48 7 9 mph 1020.3mb 55f -
9:42 7 11 mph 1020.3mb 55f -
9:36 7 9 mph 1020.1mb 55f -
9:30  -  mph - 55f -
9:24  -  mph - 55f -
9:18 10 14 mph 1019.9mb 55f 47f
9:12 11 14 mph 1019.8mb 55f 47f
9:06 10 13 mph 1019.9mb 55f 47f
9:00  -  mph 1019.9mb 55f 47f
8:54  -  mph 1019.9mb 55f 47f
8:48  -  mph 1019.9mb - -
8:42  -  mph 1020mb - -
8:36  -  mph 1020.1mb - -
8:30  -  mph 1020mb 55f -
8:24  -  mph 1020.1mb 55f -
8:18  -  mph 1019.9mb 55f -
8:12  -  mph 1019.7mb 55f -
8:06  -  mph 1019.6mb 55f -
8:00  -  mph 1019.5mb 55f -
7:54  -  mph 1019.4mb 55f -
7:48  -  mph 1019.3mb - -
7:42  -  mph 1019.2mb - -
7:36  -  mph 1019.1mb - -
7:30 13 16 mph 1019mb 54f 49f
7:24 13 15 mph 1018.9mb 54f 49f
7:18  -  mph 1018.9mb 54f 49f
7:12  -  mph 1018.9mb 54f 49f
7:06  -  mph 1018.9mb 54f 50f
7:00  -  mph - 54f 49f
6:54  -  mph - 54f 50f
6:48  -  mph 1018.7mb 54f -
6:42  -  mph 1018.8mb 54f -
6:36  -  mph 1018.9mb 54f -
6:30 13 16 mph 1018.9mb 54f -
6:24 13 17 mph 1019mb 54f -
6:18 10 15 mph 1019mb 54f 50f
6:12 13 17 mph 1019mb 54f 50f
6:06 13 15 mph 1018.7mb 54f 50f
6:00  -  mph 1018.5mb 54f 50f
5:54  -  mph 1018.6mb 54f 50f
5:48 10 17 mph 1018.6mb 54f -
5:42 11 15 mph 1018.8mb 54f -
5:36 13 17 mph 1018.8mb 54f -
5:30 14 17 mph 1018.9mb 54f 51f
5:24 13 16 mph 1018.9mb 53f 51f
5:18 11 17 mph 1019mb 53f 52f
5:12 9 17 mph 1019.1mb 53f 52f
5:06 13 16 mph 1019.1mb 53f 53f
5:00 7 14 mph 1018.9mb 53f 53f
4:54 7 14 mph 1018.9mb 53f 53f
4:48 9 14 mph 1018.7mb 53f 54f
4:42 8 11 mph 1018.6mb 53f 53f
4:36 10 15 mph 1018.6mb 53f 52f
4:30 10 14 mph 1018.5mb 53f 53f
4:24 5 14 mph 1018.5mb 53f 53f
4:18 7 15 mph 1018.6mb 53f 54f
4:12 7 14 mph 1018.6mb 53f 53f
4:06 10 15 mph 1018.7mb 53f 53f
4:00 9 15 mph 1018.7mb 53f 54f
3:54 10 15 mph 1018.5mb 53f 54f
3:48 8 15 mph 1018.4mb 52f 54f
3:42 13 15 mph 1018.5mb 52f 53f
3:36 9 15 mph 1018.3mb 52f 54f
3:30 11 16 mph 1018.3mb 52f 53f
3:24 11 17 mph 1018.3mb 52f 53f
3:18 14 16 mph 1018.3mb 52f 52f
3:12 11 15 mph 1018.3mb 52f 53f
3:06 13 16 mph 1018.4mb 52f 53f
3:00 14 16 mph 1018.5mb 52f 53f
2:54 10 16 mph 1018.5mb 52f 54f
2:48 14 16 mph 1018.6mb 52f 53f
2:42 11 16 mph 1018.7mb 52f 52f
2:36 14 16 mph 1018.8mb 52f 53f
2:30 13 18 mph 1018.9mb 52f 53f
2:24 11 16 mph 1018.9mb 52f 53f
2:18 15 17 mph 1019mb 52f 53f
2:12 13 15 mph 1019mb 52f 53f
2:06 13 16 mph 1019.2mb 52f 54f
2:00 14 17 mph 1019.2mb 52f 53f
1:54 14 17 mph 1019.2mb 52f 52f
1:48 11 16 mph 1019.2mb 52f 54f
1:42 10 15 mph 1019.3mb 52f 53f
1:36 10 15 mph 1019.4mb 52f 54f
1:30 8 13 mph 1019.5mb 52f 53f
1:24 10 14 mph 1019.5mb 52f 52f
1:18 9 14 mph 1019.7mb 52f 52f
1:12 10 14 mph 1019.8mb 52f 52f
1:06 13 16 mph 1019.9mb 52f 53f
1:00 13 16 mph 1020mb 52f 52f
12:54 9 14 mph 1020mb 52f 53f
12:48 10 17 mph 1020.1mb 52f 53f
12:42 9 15 mph 1020.1mb 52f 52f
12:36 9 14 mph 1020.1mb 52f 52f
12:30 9 16 mph 1020.2mb 52f 52f
12:24 9 14 mph 1020.2mb 52f 52f
12:18 10 15 mph 1020.4mb 52f 52f
12:12 11 16 mph 1020.5mb 52f 51f
12:06 10 15 mph 1020.5mb 52f 52f
12:00 13 15 mph 1020.6mb 52f 50f
11:54 6 13 mph 1020.7mb 52f 52f
11:48 7 15 mph 1020.8mb 52f 52f
11:42 10 13 mph 1020.9mb 52f 50f
11:36 10 14 mph 1020.9mb 52f 52f
11:30 10 13 mph 1020.9mb 52f 51f
11:24 9 14 mph 1020.9mb 52f 50f
11:18 10 15 mph 1020.9mb 52f 51f
11:12 7 13 mph 1020.9mb 52f 49f
11:06 7 13 mph 1020.9mb 52f 49f
11:00 9 15 mph 1020.9mb 52f 50f
10:54 11 15 mph 1020.9mb 52f 50f
10:48 10 14 mph 1021mb 52f 50f
10:42 10 13 mph 1021mb 52f 49f
10:36 8 11 mph 1020.9mb 52f 49f
10:30 10 15 mph 1021mb 52f 49f
10:24 10 13 mph 1021mb 52f 49f
10:18 8 13 mph 1020.9mb 52f 49f
10:12 8 16 mph 1020.9mb 52f 48f
10:06 14 17 mph 1020.8mb 52f 48f
10:00 9 11 mph 1020.8mb 52f 48f
9:54 8 13 mph 1020.9mb 52f 48f
9:48 10 14 mph 1020.8mb 52f 48f
9:42 9 11 mph 1020.9mb 52f 47f
9:36 7 9 mph 1020.9mb 52f 47f
9:30 8 15 mph 1020.8mb 52f 47f
9:24 9 13 mph 1020.8mb 52f 47f
9:18 6 10 mph 1020.7mb 52f 47f
9:12 9 11 mph 1020.8mb 52f 47f
9:06 8 15 mph 1020.8mb 52f 47f
9:00 8 9 mph 1020.8mb 52f 47f
8:54 8 10 mph 1020.8mb 52f 47f
8:48 8 10 mph 1020.9mb 53f 46f
8:42 7 10 mph 1021mb 53f 47f
8:36 7 13 mph 1021mb 53f 46f
8:30 9 13 mph 1020.9mb 53f 46f
8:24 7 11 mph 1020.8mb 53f 46f
8:18 9 13 mph 1020.7mb 53f 46f
8:12 10 13 mph 1020.6mb 53f 46f
8:06 11 14 mph 1020.6mb 53f 46f
8:00 10 14 mph 1020.7mb 53f 46f
7:54 10 14 mph 1020.8mb 53f 46f
7:48 8 11 mph 1020.8mb 53f 46f
7:42 8 10 mph 1020.8mb 53f 46f
7:36 8 10 mph 1020.8mb 53f 45f
7:30 9 11 mph 1020.7mb 53f 46f
7:24 10 13 mph 1020.6mb 53f 46f
7:18 7 10 mph 1020.6mb 53f 46f
7:12 7 10 mph 1020.7mb 53f 46f
7:06 8 9 mph 1020.6mb 53f 46f
7:00 6 8 mph 1020.5mb 53f 45f
6:54 6 7 mph 1020.4mb 53f 46f
6:48 6 7 mph 1020.4mb 53f 46f
6:42 6 7 mph 1020.2mb 53f 45f
6:36 6 7 mph 1020.2mb 53f 45f
6:30 5 6 mph 1020.2mb 53f 45f
6:24 3 6 mph 1020.1mb 53f 45f
6:18 3 5 mph 1020mb 53f 45f
6:12 2 5 mph 1019.9mb 53f 45f
6:06 3
mph
1019.8mb 53f 45f
6:00 3
mph
1019.8mb 53f 45f
5:54 3 5 mph 1019.6mb 53f 45f
5:48 3
mph
1019.5mb 53f 45f
5:42 2 3 mph 1019.5mb 53f 45f
5:36 3 5 mph 1019.4mb 53f 45f
5:30 3 5 mph 1019.4mb 53f 45f
5:24 2 5 mph 1019.5mb 53f 45f
5:18 3 5 mph 1019.4mb 53f 45f
5:12 3 5 mph 1019.3mb 53f 45f
5:06 3 6 mph 1019.3mb 53f 45f
5:00 3 5 mph 1019.3mb 53f 45f
4:54 3 5 mph 1019.3mb 53f 45f
4:48 3 5 mph 1019.3mb 53f 45f
4:42 2 3 mph 1019.2mb 53f 45f
4:36 2 5 mph 1019.3mb 53f 45f
4:30 2 5 mph 1019.2mb 53f 45f
4:24 2 3 mph 1019.3mb 53f 45f
4:18 2 3 mph 1019.3mb 53f 45f
4:12 2 3 mph 1019.3mb 53f 45f
4:06 3 6 mph 1019.2mb 52f 46f
4:00 3 6 mph 1019.1mb 52f 46f
3:54 5 6 mph 1019.1mb 52f 46f
3:48 3 6 mph 1019.1mb 52f 46f
3:42 5
mph
1019mb 52f 46f
3:36 3 5 mph 1018.9mb 52f 46f
3:30 3 5 mph 1018.8mb 52f 46f
3:24 3 5 mph 1018.8mb 52f 46f
3:18 3 5 mph 1018.7mb 52f 46f
3:12 3 5 mph 1018.6mb 52f 46f
3:06 3
mph
1018.6mb 52f 46f
3:00 3 5 mph 1018.5mb 52f 46f
2:54 3 5 mph 1018.4mb 52f 46f
2:48 2 5 mph 1018.4mb 52f 46f
2:42 2 5 mph 1018.3mb 52f 46f
2:36 2 3 mph 1018.3mb 52f 46f
2:30 3
mph
1018.3mb 52f 46f
2:24 2 3 mph 1018.3mb 52f 45f
2:18 2 3 mph 1018.4mb 52f 46f
2:12 2 3 mph 1018.3mb 52f 45f
2:06 2 3 mph 1018.2mb 52f 46f
2:00 3 5 mph 1018.3mb 52f 46f
1:54 5 6 mph 1018.2mb 52f 45f
1:48 5 7 mph 1018.3mb 52f 45f
1:42 5 7 mph 1018.3mb 52f 46f
1:36 6 8 mph 1018.3mb 52f 45f
1:30 6 10 mph 1018.3mb 52f 46f
1:24 9 10 mph 1018.4mb 52f 46f
1:18 9 11 mph 1018.5mb 52f 46f
1:12 8 11 mph 1018.4mb 52f 46f
1:06 10 11 mph 1018.5mb 52f 46f
1:00 10 13 mph 1018.5mb 52f 46f
12:54 6 8 mph 1018.4mb 52f 46f
12:48 6 9 mph 1018.4mb 52f 46f
12:42 7 9 mph 1018.3mb 52f 47f
12:36 6 10 mph 1018.4mb 52f 47f
12:30 7 9 mph 1018.5mb 52f 47f
12:24 5 7 mph 1018.3mb 52f 47f
12:18 6 9 mph 1018.2mb 52f 47f
12:12 8 10 mph 1018.2mb 52f 47f
12:06 9 10 mph 1018.3mb 52f 47f
12:00 10 14 mph 1018.3mb 52f 47f
Qui 04/28 11:54 9 15 mph 1018.3mb 52f 47f
11:48 10 14 mph 1018.2mb 52f 47f
11:42 10 14 mph 1018.3mb 52f 47f
11:36 7 8 mph 1018.3mb 52f 47f
11:30 6 7 mph 1018.3mb 52f 47f
11:24 6 7 mph 1018.3mb 52f 47f
11:18 3 6 mph 1018.2mb 52f 47f
11:12 5 8 mph 1018.2mb 52f 47f
11:06 6 10 mph 1018.1mb 52f 47f
11:00  -  mph 1018.1mb 52f 47f
10:54  -  mph 1018mb 52f 47f
10:48  -  mph 1017.9mb - -
10:42  -  mph 1017.9mb - -
10:36  -  mph 1018mb - -
10:30  -  mph 1018mb - -
10:24  -  mph 1018.1mb - -
10:18 9 13 mph 1018.1mb 52f 47f
10:12 8 11 mph 1018.1mb 52f 47f
10:06 7 14 mph 1018.1mb 52f 47f
10:00  -  mph 1018.1mb 52f -
9:54  -  mph 1018.1mb 52f -
9:48  -  mph 1018.1mb - -
9:42  -  mph 1018.2mb - -
9:36  -  mph 1018.1mb - -
9:30 10 11 mph 1018mb 52f 47f
9:24 8 13 mph 1018mb 52f 47f
9:18  -  mph 1018mb 52f 47f
9:12  -  mph 1017.9mb 52f 47f
9:06  -  mph 1017.9mb 52f 47f
9:00  -  mph 1017.9mb 52f 47f
8:54  -  mph 1017.9mb 52f 47f
8:48 10 14 mph 1017.9mb 52f -
8:42 8 14 mph 1017.8mb 52f -
8:36 11 16 mph 1017.8mb 52f -
8:30  -  mph 1017.7mb 52f -
8:24  -  mph 1017.6mb 52f -
8:18 10 15 mph 1017.6mb 52f 47f
8:12 9 16 mph 1017.5mb 52f 47f
8:06 15 18 mph 1017.4mb 52f 47f
8:00  -  mph 1017.2mb 53f 47f
7:54  -  mph 1017.2mb 53f 48f
7:48  -  mph 1017.2mb 53f 48f
7:42  -  mph 1017.2mb 53f 47f
7:36  -  mph 1017.1mb 53f 47f
7:30  -  mph 1017.1mb 53f -
7:24  -  mph 1017.1mb 53f -
7:18  -  mph 1017mb 53f -
7:12  -  mph 1016.9mb 53f -
7:06  -  mph 1016.9mb 53f -
7:00  -  mph 1016.9mb 53f 48f
6:54  -  mph 1017mb 53f 48f
6:48  -  mph 1016.9mb 53f 48f
6:42  -  mph 1016.8mb 53f 48f
6:36  -  mph 1016.8mb 53f 48f
6:30  -  mph 1016.8mb 53f 48f
6:24  -  mph 1016.7mb 52f 48f
6:18 13 20 mph 1016.7mb 52f 49f
6:12 17 21 mph 1016.7mb 52f 48f
6:06 15 20 mph 1016.7mb 52f 49f
6:00  -  mph 1016.7mb 52f 49f
5:54  -  mph 1016.7mb 52f 49f
5:48  -  mph 1016.7mb 52f -
5:42  -  mph 1016.6mb 52f -
5:36  -  mph 1016.5mb 52f -
5:30 16 23 mph 1016.5mb 52f 49f
5:24 18 24 mph 1016.5mb 52f 49f
5:18 20 25 mph 1016.4mb 52f 49f
5:12 18 26 mph 1016.3mb 52f 49f
5:06 18 25 mph 1016.3mb 52f 49f
5:00 21 26 mph 1016.1mb 52f 49f
4:54 15 23 mph 1016mb 52f 50f
4:48 16 23 mph 1015.9mb 52f 50f
4:42 18 25 mph 1015.8mb 51f 50f
4:36 20 23 mph 1015.7mb 51f 50f
4:30 18 22 mph 1015.7mb 51f 51f
4:24 16 21 mph 1015.6mb 51f 51f
4:18 13 18 mph 1015.5mb 51f 53f
4:12 13 20 mph 1015.4mb 51f 53f
4:06 15 18 mph 1015.4mb 51f 52f
4:00 15 20 mph 1015.3mb 51f 52f
3:54 14 20 mph 1015.3mb 51f 53f
3:48 16 18 mph 1015.3mb 51f 52f
3:42 14 18 mph 1015.3mb 51f 54f
3:36 16 20 mph 1015.2mb 51f 53f
3:30 17 22 mph 1015.2mb 51f 52f
3:24 15 18 mph 1015.2mb 51f 53f
3:18 15 20 mph 1015.3mb 51f 53f
3:12 10 17 mph 1015.4mb 51f 54f
3:06 15 18 mph 1015.4mb 51f 54f
3:00 15 18 mph 1015.5mb 51f 54f
2:54 16 23 mph 1015.6mb 51f 53f
2:48 17 20 mph 1015.6mb 51f 53f
2:42 17 21 mph 1015.8mb 51f 54f
2:36 13 21 mph 1015.8mb 51f 54f
2:30 14 20 mph 1015.8mb 51f 55f
2:24 16 20 mph 1015.8mb 51f 54f
2:18 14 22 mph 1015.7mb 51f 55f
2:12 15 18 mph 1015.7mb 51f 55f
2:06 14 17 mph 1015.7mb 51f 55f
2:00 3 8 mph 1015.6mb 51f 57f
1:54 5 7 mph 1015.7mb 51f 57f
1:48 5 8 mph 1015.8mb 51f 56f
1:42 7 8 mph 1015.9mb 51f 55f
1:36 6 7 mph 1016mb 51f 55f
1:30 5 8 mph 1016.1mb 51f 55f
1:24 7 9 mph 1016.1mb 51f 54f
1:18 7 9 mph 1016.1mb 51f 54f
1:12 3 7 mph 1016.1mb 51f 54f
1:06 5 8 mph 1016.1mb 51f 54f
1:00 5 6 mph 1016.2mb 51f 54f
12:54 5 6 mph 1016.1mb 51f 54f
12:48 3 8 mph 1016mb 51f 55f
12:42  -  5 mph 1016.2mb 51f 54f
12:36 5 6 mph 1016.2mb 51f 53f
12:30 6 7 mph 1016.3mb 51f 53f
12:24 6 7 mph 1016.4mb 51f 52f
12:18 5 7 mph 1016.5mb 51f 52f
12:12 7 10 mph 1016.6mb 51f 52f
12:06 7 9 mph 1016.6mb 51f 51f
12:00 7 8 mph 1016.5mb 51f 51f
11:54 3 7 mph 1016.6mb 51f 51f
11:48 6 7 mph 1016.6mb 51f 52f
11:42 3 6 mph 1016.6mb 51f 51f
11:36 2 5 mph 1016.8mb 51f 51f
11:30 3 7 mph 1016.8mb 51f 53f
11:24 2 5 mph 1016.9mb 51f 52f
11:18 1 5 mph 1017.1mb 51f 51f
11:12 3 5 mph 1017mb 51f 50f
11:06 2 5 mph 1017mb 51f 51f
11:00 2 3 mph 1016.9mb 51f 50f
10:54 2 5 mph 1016.9mb 51f 50f
10:48 2 7 mph 1016.9mb 51f -
10:42 1 5 mph 1017mb 51f -
10:36 2 3 mph 1017.1mb 51f -
10:30  -  5 mph 1017.1mb 51f 51f
10:24 1 3 mph 1017.1mb 51f 49f
10:18 3 6 mph 1017.1mb 51f 51f
10:12 2 9 mph 1017.1mb 51f 50f
10:06 6 9 mph 1017mb 51f 51f
10:00 3 8 mph 1017mb 51f 51f
9:54 3 5 mph 1017.1mb 51f 50f
9:48 3 7 mph 1017.1mb 51f -
9:42 1 8 mph 1017.1mb 51f -
9:36 2 8 mph 1017.1mb 51f -
9:30 2 6 mph 1017.2mb 51f 50f
9:24 3 8 mph 1017.2mb 51f 49f
9:18 2 6 mph 1017.1mb 51f 49f
9:12 1 7 mph 1017.1mb 51f 50f
9:06 2 6 mph 1017mb 52f 50f
9:00 1 6 mph 1016.9mb 52f 49f
8:54 1 5 mph 1016.9mb 52f 49f
8:48 1 5 mph 1016.9mb 52f 49f
8:42 1 6 mph 1016.9mb 52f 49f
8:36 3 7 mph 1017mb 52f 48f
8:30 2 6 mph 1017mb 52f 48f
8:24 2 7 mph 1017.1mb 52f 48f
8:18 2 7 mph 1017mb 52f 48f
8:12 1 5 mph 1016.9mb 52f 48f
8:06  -  5 mph 1017mb 52f 47f
8:00 1 6 mph 1016.9mb 52f 47f
7:54 2 5 mph 1016.9mb 52f 47f
7:48 2 7 mph 1016.9mb 52f 48f
7:42  -  3 mph 1016.8mb 52f 47f
7:36 1 5 mph 1016.7mb 52f 47f
7:30 1 6 mph 1016.7mb 52f 46f
7:24 5 7 mph 1016.6mb 52f 46f
7:18 2 6 mph 1016.7mb 52f 46f
7:12 3 6 mph 1016.6mb 52f 47f
7:06 3 7 mph 1016.5mb 52f 47f
7:00 2 6 mph 1016.5mb 52f 47f
6:54 5 6 mph 1016.4mb 52f 46f
6:48 3 7 mph 1016.3mb 52f 46f
6:42 5 7 mph 1016.2mb 52f 46f
6:36 6 8 mph 1016.1mb 52f 45f
6:30 6 9 mph 1016mb 52f 45f
6:24 6 9 mph 1015.7mb 52f 44f
6:18 6 9 mph 1015.6mb 52f 44f
6:12 6 9 mph 1015.4mb 52f 44f
6:06 5 8 mph 1015.3mb 52f 43f
6:00 7 9 mph 1015.1mb 52f 43f
5:54 6 9 mph 1015mb 52f 43f
5:48 6 8 mph 1015mb 52f 43f
5:42 6 9 mph 1014.9mb 52f 43f
5:36 6 8 mph 1014.8mb 52f 44f
5:30 7 9 mph 1014.7mb 52f 44f
5:24 7 9 mph 1014.6mb 52f 44f
5:18 5 9 mph 1014.6mb 52f 44f
5:12 6 9 mph 1014.6mb 52f 44f
5:06 5 9 mph 1014.6mb 52f 44f
5:00 8 10 mph 1014.7mb 52f 44f
4:54 7 9 mph 1014.6mb 52f 44f
4:48 7 9 mph 1014.6mb 52f 45f
4:42 6 10 mph 1014.4mb 52f 45f
4:36 7 10 mph 1014.3mb 52f 45f
4:30 9 13 mph 1014.3mb 52f 45f
4:24 9 13 mph 1014.1mb 52f 45f
4:18 7 10 mph 1014mb 52f 45f
4:12 7 10 mph 1013.8mb 52f 46f
4:06 7 11 mph 1013.7mb 52f 46f
4:00 8 13 mph 1013.6mb 52f 46f
3:54 8 11 mph 1013.5mb 52f 46f
3:48 8 10 mph 1013.3mb 52f 46f
3:42 7 10 mph 1013.2mb 52f 46f
3:36 7 10 mph 1013mb 52f 46f
3:30 7 10 mph 1012.9mb 52f 47f
3:24 9 11 mph 1012.8mb 51f 47f
3:18 8 11 mph 1012.8mb 51f 47f
3:12 8 11 mph 1012.7mb 51f 47f
3:06 10 13 mph 1012.7mb 51f 47f
3:00 9 13 mph 1012.6mb 51f 47f
2:54 9 14 mph 1012.5mb 51f 48f
2:48 10 13 mph 1012.4mb 51f 48f
2:42 7 11 mph 1012.3mb 51f 48f
2:36 7 13 mph 1012.2mb 51f 48f
2:30 10 13 mph 1012mb 51f 48f
2:24 8 13 mph 1011.9mb 51f 47f
2:18 6 8 mph 1011.8mb 51f 47f
2:12 7 8 mph 1011.8mb 51f 48f
2:06 5 10 mph 1011.8mb 51f 48f
2:00 5 9 mph 1011.9mb 51f 48f
1:54 3 7 mph 1011.7mb 51f 48f
1:48 7 11 mph 1011.8mb 51f 48f
1:42 9 10 mph 1011.8mb 51f 48f
1:36 7 10 mph 1011.8mb 51f 48f
1:30 8 10 mph 1011.8mb 51f 48f
1:24 7 9 mph 1011.8mb 51f 49f
1:18 7 9 mph 1011.9mb 51f 49f
1:12 5 9 mph 1011.9mb 51f 49f
1:06 7 10 mph 1011.8mb 51f 49f
1:00 9 11 mph 1011.8mb 51f 49f
12:54 9 13 mph 1011.7mb 51f 49f
12:48 8 10 mph 1011.7mb 51f 49f
12:42 7 10 mph 1011.8mb 51f 49f
12:36 7 9 mph 1011.7mb 51f 49f
12:30 7 13 mph 1011.6mb 51f 49f
12:24 7 11 mph 1011.5mb 51f 49f
12:18 7 11 mph 1011.4mb 51f 49f
12:12 6 9 mph 1011.4mb 51f 49f
12:06 6 11 mph 1011.3mb 51f 49f
12:00 7 13 mph 1011.1mb 51f 49f
Qua 04/27 11:54 7 10 mph 1011.1mb 51f 48f
11:48  -  mph 1011.1mb 51f 48f
11:42  -  mph 1011mb 51f 48f
11:36  -  mph 1010.8mb 51f 48f
11:30 8 13 mph 1010.8mb 51f 48f
11:24 6 9 mph 1010.8mb 51f 49f
11:18 7 10 mph 1010.8mb 51f 49f
11:12 7 10 mph 1010.8mb 51f 49f
11:06 6 9 mph 1010.9mb 51f 49f
11:00  -  mph 1010.8mb 51f 49f
10:54  -  mph 1010.8mb 51f 49f
10:48  -  mph - 51f -
10:42  -  mph - 51f -
10:36  -  mph - 51f -
10:30  -  mph 1010.5mb 51f -
10:24  -  mph 1010.4mb 51f -
10:18 7 14 mph 1010.3mb - 49f
10:12 8 14 mph 1010.2mb - 49f
10:06 8 13 mph 1010.1mb - 49f
10:00  -  mph 1010.1mb 51f -
9:54  -  mph 1010mb 51f -
9:48  -  mph 1010mb 51f -
9:42  -  mph 1010mb 51f -
9:36  -  mph 1010mb 51f -
9:30  -  mph - 51f -
9:24  -  mph - 51f -
9:18  -  mph 1009.9mb 51f -
9:12  -  mph 1009.9mb 51f -
9:06  -  mph 1009.8mb 51f -
9:00  -  mph 1009.8mb 51f 50f
8:54  -  mph 1009.7mb 51f 50f
8:48  -  mph 1009.6mb - -
8:42  -  mph 1009.4mb - -
8:36  -  mph 1009.3mb - -
8:30  -  mph 1009.2mb 51f -
8:24  -  mph 1009.1mb 51f -
8:18 10 15 mph - 51f -
8:12 14 17 mph - 51f -
8:06 13 17 mph - 51f -
8:00  -  mph 1008.9mb 51f -
7:54  -  mph 1008.9mb 51f -
7:48  -  mph 1008.9mb 51f -